[[{"header":{"parameterUnit":"m.s-1","parameterCategory":2,"la1":30.2992,"la2":30.254,"lo1":-89.0895,"lo2":-89.0443,"dy":0.0025,"dx":0.0025,"nx":19,"ny":19,"refTime":"2026-03-14T09:00:00:Z","depth":"0","parameterNumber":2,"parameterNumberName":"U-component_of_CURRENTS"},"data":[0,0,0,0.0676,0.0676,0.0687,0.0687,0.0702,0.0702,0,0,0,0,0,0,0,0,0,0,0,0.067,0.067,0.0676,0.0676,0.0687,0.0687,0.0702,0.0702,0,0,0,0,0,0,0,0,0,0,0,0.067,0.067,0.067,0.0676,0.0687,0.0687,0.0702,0.0693,0,0,0,0,0,0,0,0,0,0,0.0682,0.0676,0.067,0.067,0.0676,0.0687,0.0687,0.0692,0.0693,0.0698,0,0.07,0,0.0704,0.0703,0.0703,0,0,0,0.0673,0.0675,0.068,0.067,0.0676,0.0687,0.0681,0.0693,0.0694,0.0699,0.07,0.0701,0.0704,0.0703,0.0703,0.0735,0.0735,0,0,0.0673,0.067,0.0679,0.0681,0.068,0.0681,0.0682,0.0693,0.0694,0.0701,0.0701,0.0704,0.0703,0.0703,0.0734,0.0735,0,0,0,0.0673,0.0669,0.0674,0.068,0.0684,0.0681,0.0682,0.0693,0.0696,0.0702,0.0704,0.0703,0.0704,0.0734,0.0735,0.0749,0,0,0,0.0672,0.067,0.0674,0.0672,0.0683,0.0688,0.0682,0.0695,0.0696,0.0704,0.0703,0.0704,0.0734,0.0734,0.0748,0.0754,0,0,0,0.0669,0.0669,0.0671,0.0672,0.0678,0.0688,0.0691,0.0695,0.0698,0.0703,0.0704,0.0734,0.0734,0.0747,0.0753,0.0788,0,0,0,0.0665,0.0665,0.0671,0.0674,0.0678,0.0689,0.0691,0.0697,0.0702,0.0704,0.0734,0.0735,0.0747,0.0752,0.0787,0.0839,0.0849,0,0,0.0661,0.0664,0.0666,0.0672,0.0681,0.0687,0.0704,0.0709,0.0712,0.0729,0.073,0.0748,0.0752,0.0788,0.0867,0.0876,0,0,0,0.0663,0.0664,0.0668,0.0675,0.0686,0.0702,0.071,0.0722,0.0741,0.0718,0.0754,0.0757,0.0779,0.0808,0.0815,0.0865,0.0737,0.0737,0.0737,0.0649,0.0659,0.0664,0.0679,0.0691,0.0714,0.0733,0.0753,0.0751,0.0766,0.0773,0.0815,0.0846,0.0852,0.0902,0.0778,0.0778,0.0778,0.0778,0.0644,0.0644,0.0665,0.0673,0.0697,0.0715,0.0758,0.0769,0.0813,0.0797,0.0818,0.0826,0.0861,0.0912,0.0779,0.0779,0.0779,0.0779,0.0779,0.0629,0.063,0.0642,0.066,0.0684,0.0716,0.0758,0.0791,0.0825,0.0847,0.0894,0.0894,0.0937,0.0863,0.0864,0.0864,0.0864,0.0864,0.0864,0.0604,0.0617,0.0621,0.0645,0.0656,0.069,0.0759,0.0803,0.0885,0.0918,0.0919,0.0965,0.0841,0.0835,0.0867,0.0867,0.0866,0.0866,0.0866,0.0577,0.0586,0.0591,0.06,0.063,0.0657,0.0732,0.0858,0.0924,0.0976,0.1073,0.0966,0.097,0.0965,0.0962,0.1025,0.1025,0.1025,0.1025,0.0554,0.056,0.0564,0.0574,0.0595,0.064,0.0725,0.0864,0.1053,0.1154,0.1166,0.1161,0.1152,0.1166,0.1156,0.1157,0.1268,0.1268,0.1268,0.0534,0.0542,0.0537,0.0554,0.0576,0.0621,0.07,0.0856,0.1151,0.1281,0.1228,0.1218,0.1208,0.119,0.1208,0.119,0.1188,0,0]},{"header":{"parameterUnit":"m.s-1","parameterCategory":2,"la1":30.2992,"la2":30.254,"lo1":-89.0895,"lo2":-89.0443,"dy":0.0025,"dx":0.0025,"nx":19,"ny":19,"refTime":"2026-03-14T09:00:00:Z","depth":"0","parameterNumber":3,"parameterNumberName":"V-component_of_CURRENTS"},"data":[0,0,0,-0.0087,-0.0087,-0.0116,-0.0116,-0.0146,-0.0146,0,0,0,0,0,0,0,0,0,0,0,-0.0075,-0.0075,-0.0086,-0.0087,-0.0116,-0.0116,-0.0146,-0.0146,0,0,0,0,0,0,0,0,0,0,0,-0.0075,-0.0075,-0.0075,-0.0087,-0.0116,-0.0116,-0.0146,-0.0126,0,0,0,0,0,0,0,0,0,0,-0.0099,-0.0086,-0.0075,-0.0075,-0.0087,-0.0116,-0.0116,-0.0125,-0.0127,-0.013,0,-0.0134,0,-0.0141,-0.0148,-0.0148,0,0,0,-0.0088,-0.0085,-0.0095,-0.0075,-0.0088,-0.0116,-0.0103,-0.0126,-0.0129,-0.0133,-0.0134,-0.0135,-0.0141,-0.0148,-0.0148,-0.0158,-0.0158,0,0,-0.0087,-0.0078,-0.0094,-0.0097,-0.0094,-0.0102,-0.0104,-0.0128,-0.0128,-0.0134,-0.0136,-0.0142,-0.0148,-0.0148,-0.0158,-0.0158,0,0,0,-0.0081,-0.0077,-0.0087,-0.0095,-0.0101,-0.0103,-0.0105,-0.0127,-0.0131,-0.0137,-0.0142,-0.0148,-0.0148,-0.0158,-0.0158,-0.0133,0,0,0,-0.008,-0.0074,-0.0086,-0.0081,-0.0101,-0.0115,-0.0103,-0.0129,-0.0132,-0.0142,-0.0148,-0.0149,-0.0158,-0.0158,-0.0133,-0.011,0,0,0,-0.0074,-0.0073,-0.0077,-0.0081,-0.0093,-0.0115,-0.012,-0.013,-0.0135,-0.0148,-0.0149,-0.0158,-0.0158,-0.0134,-0.0111,-0.0074,0,0,0,-0.0064,-0.0065,-0.0077,-0.0078,-0.0093,-0.0103,-0.012,-0.0129,-0.0138,-0.0148,-0.0158,-0.0158,-0.0134,-0.0113,-0.0076,0.0015,0.0029,0,0,-0.0059,-0.0064,-0.0064,-0.0076,-0.0078,-0.0099,-0.01,-0.012,-0.0136,-0.015,-0.0151,-0.0133,-0.0112,-0.0075,0.0026,0.004,0,0,0,-0.0059,-0.0058,-0.0061,-0.0066,-0.0078,-0.0079,-0.0104,-0.0113,-0.0126,-0.0141,-0.0136,-0.0123,-0.01,-0.005,-0.0038,-0.0059,-0.0157,-0.0157,-0.0157,-0.0036,-0.0045,-0.0042,-0.0051,-0.0055,-0.0069,-0.0069,-0.0086,-0.0112,-0.0113,-0.0105,-0.0063,-0.0009,0.0001,-0.0023,-0.0115,-0.0115,-0.0115,-0.0115,-0.0021,-0.0017,-0.0024,-0.0025,-0.0028,-0.0031,-0.004,-0.0054,-0.005,-0.0084,-0.0064,-0.0029,0.0015,-0.0015,-0.0114,-0.0114,-0.0114,-0.0114,-0.0114,-0.0003,-0.0001,-0.0006,-0.0002,0.0006,-0.0003,0.0028,0.0005,-0.0015,-0.0001,0.0061,0.0062,0.004,0.0009,0.0009,0.0009,0.0009,0.001,0.001,0.0019,0.0016,0.0023,0.0024,0.0033,0.0053,0.0068,0.009,0.0117,0.0109,0.011,0.006,-0.0024,-0.0024,0.0014,0.0013,0.0013,0.0012,0.0012,0.0042,0.0039,0.0053,0.0061,0.0088,0.015,0.0163,0.0251,0.0263,0.0299,0.0221,0.0173,0.018,0.0171,0.0177,0.0264,0.0264,0.0264,0.0264,0.0062,0.006,0.0083,0.0103,0.0144,0.0195,0.0349,0.0436,0.0414,0.0392,0.031,0.0289,0.028,0.029,0.0279,0.0284,0.0397,0.0397,0.0397,0.0081,0.0084,0.0106,0.0121,0.0165,0.0266,0.0449,0.063,0.0554,0.0394,0.0263,0.0257,0.0212,0.02,0.0201,0.0187,0.0191,0,0]}],[{"header":{"parameterUnit":"m.s-1","parameterCategory":2,"la1":30.2992,"la2":30.254,"lo1":-89.0895,"lo2":-89.0443,"dy":0.0025,"dx":0.0025,"nx":19,"ny":19,"refTime":"2026-03-14T09:00:00:Z","depth":"2","parameterNumber":2,"parameterNumberName":"U-component_of_CURRENTS"},"data":[0,0,0,0.0759,0.0759,0.0769,0.0769,0.0784,0.0784,0,0,0,0,0,0,0,0,0,0,0,0.0754,0.0754,0.0759,0.0759,0.0769,0.0769,0.0784,0.0784,0,0,0,0,0,0,0,0,0,0,0,0.0754,0.0754,0.0754,0.0759,0.0769,0.0769,0.0784,0.0776,0,0,0,0,0,0,0,0,0,0,0.0766,0.0759,0.0754,0.0754,0.0759,0.0769,0.0769,0.0775,0.0776,0.0781,0,0.0783,0,0.0787,0.0786,0.0786,0,0,0,0.0757,0.0758,0.0764,0.0754,0.076,0.0769,0.0764,0.0776,0.0777,0.0783,0.0784,0.0784,0.0787,0.0786,0.0786,0.0818,0.0818,0,0,0.0756,0.0753,0.0763,0.0764,0.0763,0.0764,0.0764,0.0776,0.0776,0.0784,0.0785,0.0787,0.0786,0.0786,0.0818,0.0818,0,0,0,0.0756,0.0753,0.0757,0.0764,0.0767,0.0764,0.0765,0.0776,0.0778,0.0785,0.0787,0.0786,0.0786,0.0817,0.0818,0.0829,0,0,0,0.0756,0.0753,0.0757,0.0755,0.0766,0.0771,0.0764,0.0777,0.0779,0.0787,0.0786,0.0787,0.0817,0.0818,0.0828,0.0833,0,0,0,0.0753,0.0753,0.0754,0.0755,0.0761,0.0771,0.0773,0.0777,0.078,0.0786,0.0787,0.0817,0.0818,0.0828,0.0832,0.0868,0,0,0,0.0748,0.0748,0.0754,0.0757,0.0761,0.0772,0.0773,0.0779,0.0784,0.0786,0.0817,0.0818,0.0827,0.0831,0.0867,0.092,0.0929,0,0,0.0745,0.0747,0.0749,0.0755,0.0764,0.077,0.0786,0.0791,0.0794,0.0812,0.0813,0.0829,0.0832,0.0868,0.0948,0.0957,0,0,0,0.0746,0.0747,0.0751,0.0758,0.0769,0.0784,0.0792,0.0804,0.0822,0.08,0.0835,0.0837,0.086,0.0889,0.0896,0.082,0.082,0.082,0.082,0.0731,0.0741,0.0746,0.0761,0.0772,0.0795,0.0814,0.0833,0.0832,0.0845,0.0851,0.0893,0.0924,0.093,0.0857,0.0857,0.0857,0.0857,0.0857,0.0724,0.0724,0.0745,0.0753,0.0776,0.0792,0.0836,0.0847,0.089,0.0874,0.0895,0.0905,0.0938,0.0858,0.0858,0.0858,0.0858,0.0858,0.0858,0.0707,0.0709,0.072,0.0736,0.0759,0.079,0.0832,0.0865,0.09,0.0921,0.097,0.097,0.0906,0.0938,0.0938,0.0938,0.0938,0.0938,0.0938,0.068,0.0694,0.0696,0.0719,0.0729,0.0762,0.0831,0.0876,0.0958,0.0992,0.0993,0.092,0.0918,0.0911,0.0941,0.0941,0.094,0.094,0.094,0.0652,0.066,0.0664,0.0672,0.0702,0.0733,0.0805,0.0932,0.0997,0.105,0.1043,0.104,0.1046,0.1041,0.1038,0.1099,0.1099,0.1099,0.1099,0.0628,0.0634,0.0636,0.0645,0.0667,0.0717,0.0814,0.095,0.1066,0.1123,0.1121,0.1104,0.1098,0.1105,0.1098,0.1095,0.1171,0.1171,0.1171,0.0608,0.0615,0.0609,0.0625,0.0649,0.0703,0.0805,0.0945,0.1092,0.1169,0.1085,0.1113,0.1083,0.1075,0.1081,0.1072,0.1065,0,0]},{"header":{"parameterUnit":"m.s-1","parameterCategory":2,"la1":30.2992,"la2":30.254,"lo1":-89.0895,"lo2":-89.0443,"dy":0.0025,"dx":0.0025,"nx":19,"ny":19,"refTime":"2026-03-14T09:00:00:Z","depth":"2","parameterNumber":3,"parameterNumberName":"V-component_of_CURRENTS"},"data":[0,0,0,-0.015,-0.0151,-0.0178,-0.0178,-0.0205,-0.0205,0,0,0,0,0,0,0,0,0,0,0,-0.014,-0.014,-0.015,-0.0151,-0.0178,-0.0178,-0.0204,-0.0205,0,0,0,0,0,0,0,0,0,0,0,-0.014,-0.014,-0.014,-0.0151,-0.0178,-0.0178,-0.0204,-0.0186,0,0,0,0,0,0,0,0,0,0,-0.0162,-0.0149,-0.014,-0.014,-0.0151,-0.0178,-0.0178,-0.0186,-0.0188,-0.019,0,-0.0193,0,-0.02,-0.0206,-0.0206,0,0,0,-0.0152,-0.0148,-0.0158,-0.014,-0.0152,-0.0178,-0.0166,-0.0187,-0.0189,-0.0192,-0.0193,-0.0194,-0.02,-0.0206,-0.0207,-0.021,-0.021,0,0,-0.0151,-0.0142,-0.0156,-0.0159,-0.0157,-0.0165,-0.0167,-0.0188,-0.0188,-0.0193,-0.0195,-0.0201,-0.0207,-0.0207,-0.021,-0.021,0,0,0,-0.0146,-0.0141,-0.0151,-0.0158,-0.0164,-0.0166,-0.0168,-0.0187,-0.0191,-0.0195,-0.0201,-0.0207,-0.0207,-0.021,-0.021,-0.0184,0,0,0,-0.0145,-0.0138,-0.015,-0.0145,-0.0163,-0.0176,-0.0166,-0.0189,-0.0192,-0.0201,-0.0207,-0.0207,-0.0211,-0.021,-0.0185,-0.0163,0,0,0,-0.0139,-0.0138,-0.0141,-0.0145,-0.0156,-0.0176,-0.0181,-0.019,-0.0195,-0.0206,-0.0207,-0.0211,-0.021,-0.0186,-0.0165,-0.0131,0,0,0,-0.0129,-0.0129,-0.0141,-0.014,-0.0156,-0.0163,-0.0181,-0.0188,-0.0196,-0.0207,-0.0211,-0.021,-0.0186,-0.0166,-0.0132,-0.0055,-0.0042,0,0,-0.0123,-0.0128,-0.0128,-0.0139,-0.0139,-0.016,-0.0158,-0.0176,-0.0192,-0.0204,-0.0204,-0.0185,-0.0165,-0.0131,-0.0038,-0.0025,0,0,0,-0.0122,-0.0121,-0.0123,-0.0127,-0.0137,-0.0137,-0.016,-0.0167,-0.0178,-0.0196,-0.0186,-0.0174,-0.0153,-0.0111,-0.01,-0.0209,-0.0209,-0.0209,-0.0209,-0.0098,-0.0106,-0.0102,-0.011,-0.0112,-0.0123,-0.0123,-0.0136,-0.0162,-0.0161,-0.0154,-0.0111,-0.0066,-0.0057,-0.0162,-0.0162,-0.0161,-0.0161,-0.0161,-0.0082,-0.0077,-0.0083,-0.0082,-0.0083,-0.0083,-0.009,-0.0102,-0.0097,-0.013,-0.0111,-0.0087,-0.0044,-0.0159,-0.016,-0.016,-0.016,-0.016,-0.016,-0.0063,-0.0061,-0.0064,-0.0058,-0.0048,-0.0055,-0.0023,-0.0044,-0.0063,-0.0049,0.0001,0.0002,-0.0083,-0.0041,-0.0041,-0.0041,-0.0041,-0.0041,-0.004,-0.0041,-0.0044,-0.0035,-0.0032,-0.0023,-0.0001,0.0015,0.0035,0.0057,0.0048,0.0048,-0.007,-0.0074,-0.0076,-0.0037,-0.0037,-0.0038,-0.0038,-0.0038,-0.0018,-0.0021,-0.0007,0.0002,0.0029,0.0083,0.0101,0.0181,0.0192,0.0222,0.0108,0.0103,0.0108,0.01,0.0103,0.0186,0.0186,0.0186,0.0186,0.0001,-0.0001,0.0021,0.0041,0.008,0.0122,0.0242,0.0267,0.0251,0.02,0.0199,0.0174,0.0167,0.0171,0.0162,0.0164,0.0263,0.0263,0.0262,0.0019,0.0022,0.0043,0.0057,0.0099,0.0182,0.0302,0.0316,0.0233,0.0258,0.0133,0.0206,0.0167,0.0156,0.0158,0.0144,0.0146,0,0]}],[{"header":{"parameterUnit":"m.s-1","parameterCategory":2,"la1":30.2992,"la2":30.254,"lo1":-89.0895,"lo2":-89.0443,"dy":0.0025,"dx":0.0025,"nx":19,"ny":19,"refTime":"2026-03-14T09:00:00:Z","depth":"4","parameterNumber":2,"parameterNumberName":"U-component_of_CURRENTS"},"data":[0,0,0,0.0717,0.0719,0.077,0.077,0.0807,0.0807,0,0,0,0,0,0,0,0,0,0,0,0.0702,0.0702,0.0717,0.0719,0.077,0.077,0.0807,0.0807,0,0,0,0,0,0,0,0,0,0,0,0.0701,0.0702,0.0703,0.0719,0.077,0.077,0.0807,0.0775,0,0,0,0,0,0,0,0,0,0,0.0728,0.0721,0.0702,0.0703,0.0719,0.077,0.077,0.0773,0.0777,0.0775,0,0.0789,0,0.0798,0.0809,0.0809,0,0,0,0.0717,0.0718,0.073,0.0703,0.072,0.077,0.0747,0.0775,0.0779,0.0779,0.0789,0.0791,0.0799,0.0809,0.0809,0.085,0.085,0,0,0.0714,0.0712,0.0727,0.0732,0.074,0.0745,0.0748,0.0778,0.0785,0.0789,0.0792,0.0799,0.0809,0.0809,0.085,0.085,0,0,0,0.0707,0.071,0.0721,0.0731,0.0742,0.0746,0.075,0.0784,0.0787,0.0792,0.08,0.0809,0.081,0.085,0.085,0.0859,0,0,0,0.0705,0.0706,0.072,0.0719,0.0742,0.0768,0.0755,0.0785,0.0789,0.08,0.0809,0.081,0.0849,0.085,0.0858,0.086,0,0,0,0.0698,0.0705,0.0712,0.0719,0.0741,0.0768,0.0774,0.0786,0.0793,0.0809,0.081,0.0849,0.085,0.0858,0.0859,0.0892,0,0,0,0.0691,0.07,0.0712,0.0727,0.0741,0.0766,0.0774,0.0796,0.081,0.081,0.0849,0.085,0.0857,0.0858,0.0891,0.0792,0,0,0,0.0694,0.0701,0.0708,0.072,0.074,0.0758,0.0784,0.0807,0.0818,0.0836,0.0838,0.0859,0.0859,0.0891,0.0826,0,0,0,0,0.0703,0.071,0.0718,0.0736,0.0756,0.078,0.0804,0.082,0.0851,0.083,0.0868,0.0868,0.0888,0.0828,0.0853,0.0853,0.0852,0.0852,0.0852,0.0696,0.0708,0.0722,0.0742,0.0762,0.0797,0.0822,0.085,0.0857,0.0877,0.0882,0.0921,0.0857,0.0891,0.0891,0.0891,0.0891,0.0891,0.0891,0.0692,0.0695,0.0723,0.0741,0.077,0.0796,0.0843,0.0861,0.091,0.0902,0.0922,0.0849,0.0892,0.0892,0.0892,0.0892,0.0891,0.0891,0.0891,0.0675,0.0677,0.0699,0.0728,0.076,0.0797,0.0835,0.0877,0.0918,0.094,0.0895,0.0937,0.0929,0.0959,0.096,0.096,0.096,0.096,0.096,0.0642,0.0664,0.0679,0.0714,0.0733,0.0769,0.0837,0.0871,0.0922,0.0898,0.0952,0.0944,0.0942,0.0934,0.0963,0.0962,0.0962,0.0962,0.0961,0.061,0.0628,0.0646,0.0665,0.0705,0.0723,0.0797,0.084,0.0878,0.0886,0.0882,0.0885,0.0877,0.0877,0.0866,0.0876,0.0874,0.0873,0,0.0585,0.0595,0.0618,0.0637,0.0652,0.0693,0.071,0.0762,0.0816,0.079,0.089,0.0884,0.0886,0.0875,0.0873,0.0859,0,0,0,0.0565,0.0577,0.0584,0.0612,0.0623,0.0654,0.0711,0.0712,0.0797,0.0806,0.0844,0.0852,0.0917,0.097,0.0966,0.0963,0.095,0,0]},{"header":{"parameterUnit":"m.s-1","parameterCategory":2,"la1":30.2992,"la2":30.254,"lo1":-89.0895,"lo2":-89.0443,"dy":0.0025,"dx":0.0025,"nx":19,"ny":19,"refTime":"2026-03-14T09:00:00:Z","depth":"4","parameterNumber":3,"parameterNumberName":"V-component_of_CURRENTS"},"data":[0,0,0,-0.019,-0.0191,-0.0222,-0.0222,-0.0235,-0.0235,0,0,0,0,0,0,0,0,0,0,0,-0.0179,-0.0179,-0.019,-0.0191,-0.0222,-0.0222,-0.0235,-0.0235,0,0,0,0,0,0,0,0,0,0,0,-0.0179,-0.0179,-0.018,-0.0191,-0.0222,-0.0222,-0.0235,-0.0219,0,0,0,0,0,0,0,0,0,0,-0.0192,-0.0185,-0.0179,-0.018,-0.0191,-0.0222,-0.0222,-0.0218,-0.022,-0.0214,0,-0.0219,0,-0.0227,-0.0236,-0.0236,0,0,0,-0.0191,-0.0183,-0.0192,-0.018,-0.0192,-0.0222,-0.0208,-0.0219,-0.0221,-0.0215,-0.022,-0.022,-0.0227,-0.0236,-0.0236,-0.0207,-0.0206,0,0,-0.019,-0.0184,-0.0191,-0.0193,-0.02,-0.0207,-0.0209,-0.0221,-0.0221,-0.022,-0.0221,-0.0228,-0.0236,-0.0236,-0.0207,-0.0207,0,0,0,-0.0185,-0.0182,-0.0192,-0.0193,-0.02,-0.0208,-0.021,-0.0221,-0.0224,-0.0221,-0.0228,-0.0236,-0.0236,-0.0207,-0.0207,-0.0187,0,0,0,-0.0184,-0.018,-0.0191,-0.0188,-0.02,-0.0215,-0.0211,-0.0224,-0.0225,-0.0228,-0.0236,-0.0236,-0.0208,-0.0207,-0.0188,-0.0174,0,0,0,-0.0178,-0.0179,-0.0183,-0.0187,-0.0201,-0.0215,-0.0219,-0.0224,-0.0229,-0.0236,-0.0236,-0.0208,-0.0207,-0.0189,-0.0176,-0.0159,0,0,0,-0.017,-0.017,-0.0183,-0.0182,-0.02,-0.0199,-0.0219,-0.0223,-0.0227,-0.0236,-0.0208,-0.0207,-0.019,-0.0177,-0.016,-0.0158,0,0,0,-0.0164,-0.0169,-0.0168,-0.0179,-0.0173,-0.0195,-0.018,-0.0199,-0.0211,-0.0203,-0.0203,-0.0188,-0.0176,-0.0159,-0.0109,0,0,0,0,-0.0161,-0.016,-0.016,-0.0161,-0.0165,-0.0159,-0.0177,-0.0179,-0.018,-0.021,-0.0176,-0.0169,-0.016,-0.0162,-0.0203,-0.0203,-0.0203,-0.0203,-0.0203,-0.0145,-0.0146,-0.0137,-0.0137,-0.0133,-0.0134,-0.0129,-0.0132,-0.0152,-0.0146,-0.0145,-0.0106,-0.0107,-0.0139,-0.0139,-0.0139,-0.0139,-0.0139,-0.0139,-0.0129,-0.0123,-0.0118,-0.0113,-0.0104,-0.0093,-0.0083,-0.0094,-0.0084,-0.0107,-0.0099,-0.013,-0.0136,-0.0137,-0.0137,-0.0137,-0.0137,-0.0138,-0.0138,-0.0117,-0.0113,-0.0112,-0.0099,-0.008,-0.0072,-0.0044,-0.0049,-0.0061,-0.0053,-0.0062,-0.0087,-0.0098,-0.0056,-0.0056,-0.0056,-0.0056,-0.0056,-0.0056,-0.0107,-0.0103,-0.0098,-0.0083,-0.0073,-0.0049,-0.0025,-0.0015,-0.0024,-0.0029,-0.005,-0.0078,-0.0081,-0.0093,-0.0054,-0.0054,-0.0054,-0.0054,-0.0055,-0.0096,-0.0098,-0.0088,-0.008,-0.005,-0.0027,-0.0003,0.0018,0.0031,0.0027,-0.0015,-0.0017,-0.0024,-0.0027,-0.0038,0.0019,0.0019,0.002,0,-0.009,-0.009,-0.0081,-0.0065,-0.0034,-0.0013,0.0023,0.0037,0.0026,0.002,0.0016,-0.0032,-0.0034,-0.0043,-0.0046,-0.0059,0,0,0,-0.0084,-0.0083,-0.0077,-0.0065,-0.0031,0.0009,0.0034,0.0039,0.0027,0.0043,0.0024,0.0023,-0.002,-0.0047,-0.0062,-0.0066,-0.0085,0,0]}]]